Regional Weather Roundup
Issued by NWS Goodland, KS

Home | Current Version | Previous Version | Graphics & Text | Print | Product List | Glossary On
Versions: 1 2 3 4 5 6 7 8 9 10 11 12 13 14 15 16 17 18 19 20 21 22 23 24 25 26 27 28 29 30 31 32 33 34 35 36 37 38 39 40 41 42 43 44 45 46 47 48 49 50
000
ASUS43 KGLD 230259
RWRGLD

GOODLAND FORECAST AREA HOURLY WEATHER ROUNDUP
NATIONAL WEATHER SERVICE GOODLAND KS
900 PM MDT FRI AUG 22 2014

...OFFICIAL OBSERVATIONS...

CITY           SKY/WX    TMP DP  RH WIND       PRES   REMARKS
GOODLAND KS    TSTM      65  64  97 NW10      30.01R FOG
HILL CITY KS   CLOUDY    71  67  87 CALM      29.91F
IMPERIAL NEB   TSTM      70  66  87 VRB3      30.00R FOG
MCCOOK NEB     LGT RAIN  71  69  93 W10       29.96F
AKRON CO       HVY RAIN  60  59  96 NW13      30.08S FOG
BURLINGTON CO  CLOUDY    65  63  93 NE5       30.02F
LIMON CO       CLOUDY    60  59  96 N16G25    30.03F
$$

...UNOFFICIAL OBSERVATIONS...

CITY           SKY/WX    TMP DP  RH WIND       PRES   REMARKS
COLBY KS       DRIZZLE   68  68 100 CALM      30.00R
NORTON KS      PTCLDY    68  63  83 CALM      29.90F
SHARON SPRINGS   N/A     68  64  88 N8          N/A
WAKEENEY KS      N/A     70  67  88 MISG        N/A
KIT CARSON CO    N/A     62  59  91 MISG        N/A
YUMA CO          N/A     64  61  91 NW7         N/A
$$



USA.gov is the U.S. government's official web portal to all federal, state and local government web resources and services.